User: anonymous   Login
Location: Fairmont
(43.6520°N, 94.4610°W)
Time: 10:56:10
(UTC-05:00)
Language:

Cosmos-2242 - Orbit

View from above orbital plane
View from above orbital plane
View from above satellite
View from above satellite

Ground track
Ground track

The orbit data is extracted from the following two-line orbital elements,

1 22626U 93024A   15242.16927263  .00000616  00000-0  65670-4 0  9997
2 22626 082.5227 300.9913 0020429 137.9389 222.3400 14.87095697208489
Epoch (UTC): 30 August 2015 04:03:45
Eccentricity: 0.0020429
inclination: 82.5227°
perigee height: 593 km
apogee height: 621 km
right ascension of ascending node: 300.9913°
argument of perigee: 137.9389°
revolutions per day: 14.87095697
mean anomaly at epoch: 222.3400°
orbit number at epoch: 20848

The dashed part of the orbit path shows where the satellite is in the earth's shadow,  

DLR